Sharm El Sheikh, Egypt

11:09 AM EET on January 22, 2017 (GMT +0200)
Sharm El Sheikh

Weather History for HESH - March, 2014

Change the Weather History Date:

Friday, March 21, 2014

  Actual Average (HEGN) Record (HEGN)
Temperature  
Mean Temperature 77 °F -  
Max Temperature 86 °F 84 °F 94 °F (2013)
Min Temperature 68 °F 66 °F 55 °F (2003)
Cooling Degree Days 12    
Growing Degree Days 27 (Base 50)    
Moisture  
Dew Point 52 °F    
Average Humidity 46    
Maximum Humidity 64    
Minimum Humidity 23    
Precipitation  
Precipitation 0.00 in 0.00 in - ()
Sea Level Pressure  
Sea Level Pressure 29.90 in    
Wind  
Wind Speed 12 mph ()    
Max Wind Speed 21 mph    
Max Gust Speed -    
Visibility 3.3 miles    
Events      
Averages and records for this station are not official NWS values.
T = Trace of Precipitation, MM = Missing Value Source: Averaged Metar Reports

Daily Weather History Graph

Daily Weather History Graph

Search for Another Location

Airport or City:

Trip Planner

Search our weather history database for the weather conditions in past years. The results will help you decide how hot, cold, wet, or windy it might be!

Date:

Astronomy

Mar. 21, 2014 Rise Set
Actual Time 5:45 AM EET 5:54 PM EET
Civil Twilight 5:22 AM EET 6:17 PM EET
Nautical Twilight 4:54 AM EET 6:44 PM EET
Astronomical Twilight 4:27 AM EET 7:12 PM EET
Moon 10:30 PM EET (3/21) 8:42 AM EET (3/21)
Length of Visible Light 12h 55m
Length of Day
12h 08m
Waning Gibbous, 78% of the Moon is Illuminated
Mar 21
Waning Gibbous
Mar 24
Last Quarter
Mar 30
New
Apr 7
First Quarter
Apr 15
Full

Hourly Weather History & Observations

Time (EET) Temp. Heat Index Dew Point Humidity Pressure Visibility Wind Dir Wind Speed Gust Speed Precip Events Conditions
12:00 AM 73.4 °F - 57.2 °F 57% 29.89 in - North 11.5 mph - N/A   Clear
1:00 AM 71.6 °F - 57.2 °F 60% 29.89 in - North 11.5 mph - N/A   Clear
2:00 AM 71.6 °F - 57.2 °F 60% 29.89 in - North 16.1 mph - N/A   Clear
3:00 AM 69.8 °F - 57.2 °F 64% 29.89 in - North 16.1 mph - N/A   Clear
4:00 AM 69.8 °F - 57.2 °F 64% 29.89 in - North 15.0 mph - N/A   Clear
5:00 AM 69.8 °F - 55.4 °F 60% 29.89 in - North 16.1 mph - N/A   Clear
6:00 AM 68.0 °F - 55.4 °F 64% 29.92 in 3.7 mi North 15.0 mph - N/A   Unknown
7:00 AM 69.8 °F - 57.2 °F 64% 29.92 in 3.7 mi North 15.0 mph - N/A   Unknown
8:00 AM 73.4 °F - 57.2 °F 57% 29.95 in 2.5 mi North 20.7 mph - N/A   Sand
9:00 AM 73.4 °F - 55.4 °F 53% 29.95 in 2.5 mi NNE 20.7 mph - N/A   Sand
10:00 AM 77.0 °F - 55.4 °F 47% 29.95 in 2.5 mi NNE 17.3 mph - N/A   Sand
11:00 AM 78.8 °F - 55.4 °F 44% 29.95 in 2.5 mi NNE 15.0 mph - N/A   Sand
12:00 PM 80.6 °F 80.5 °F 55.4 °F 42% 29.92 in 2.5 mi NNE 13.8 mph - N/A   Sand
1:00 PM 82.4 °F - 51.8 °F 35% 29.89 in 3.7 mi NNE 15.0 mph - N/A   Unknown
2:00 PM 84.2 °F - 48.2 °F 29% 29.86 in 3.7 mi NNE 13.8 mph - N/A   Unknown
3:00 PM 84.2 °F - 48.2 °F 29% 29.86 in 3.7 mi NNE 9.2 mph - N/A   Unknown
4:00 PM 86.0 °F - 44.6 °F 23% 29.86 in 5.0 mi ENE 6.9 mph - N/A   Unknown
5:00 PM 82.4 °F - 44.6 °F 26% 29.86 in - NE 4.6 mph - N/A   Clear
6:00 PM 77.0 °F - 44.6 °F 32% 29.86 in - NE 3.5 mph - N/A   Clear
7:00 PM 75.2 °F - 46.4 °F 36% 29.86 in - North 5.8 mph - N/A   Clear
8:00 PM 75.2 °F - 46.4 °F 36% 29.86 in - North 5.8 mph - N/A   Clear
9:00 PM 73.4 °F - 46.4 °F 38% 29.89 in - North 6.9 mph - N/A   Clear
10:00 PM 73.4 °F - 50.0 °F 44% 29.92 in - North 16.1 mph - N/A   Clear
11:00 PM 73.4 °F - 51.8 °F 47% 29.92 in - North 15.0 mph - N/A   Clear